CZ-3C R/B (43875 NORAD) Tracking and Keplerian Element Data

This shows tracking and keplerian element data for the satellite.

Feedback or suggestion? Click here.




ElementValue
Catalog43875
NameCZ-3C R/B
Epoch Orbit55
Epoch Day17.60422283
Epoch Year2019
RAAN334.8377
Inclination28.468
Eccentricity0.7258984
Argument of Perigee194.2675
Mean Anonmoly121.6631
Mean Motion2.3172745
Decay Rate1.604E-05
L11 43875U 18110B 19017.60422283 .00001604 00000-0 32016-3 0 9999
L22 43875 28.4680 334.8377 7258984 194.2675 121.6631 2.31727450 550

Live tracking and technical data element details for CZ-3C R/B (NORAD 43875). CZ-3C R/B can be tracked NOW for your location showing map with azimuth and elevation plus other details from your city location.

Track the satellite on the map from your city or location and see movement details for azimuth, elevation, latitude, longitude, range, height, and movement on the map or in text.







IsCatalogInMostPopularTable: catalog: 43875, numindb: 17
Update: records affected: 1



GetName: 43875 CZ-3C R/B

Hit Count: updated at: Fri, 18 Jan 2019 21:38:00 GMT